Wind_Speed
15 15 16 17 16 19 22 22 23 21 23 24 23 22 22 21 24 27 27 26 25 24 24 23 24 24 23 23 22 21 21 20 20 19 18 17 16 16 15 15 16 16 15
16 15 16 17 20 20 20 19 21 22 22 24 23 21 20 22 24 24 25 26 27 29 28 25 25 25 25 24 23 22 21 22 21 20 19 19 17 17 17 16 15 17 17
17 16 17 18 19 19 20 20 21 20 21 22 22 20 21 23 23 23 24 25 29 33 30 29 26 26 27 26 25 23 22 23 23 22 20 19 20 18 19 16 16 16 20
17 18 18 18 18 20 20 20 20 21 21 22 22 20 23 22 24 26 26 28 23 32 32 31 30 28 27 26 26 25 23 23 24 23 22 21 21 20 20 18 17 16 13
19 19 19 18 19 20 20 19 20 20 20 19 21 21 23 22 22 25 24 30 29 37 34 33 29 29 27 27 27 24 25 26 27 25 24 23 22 21 21 19 18 16 14
20 20 19 19 20 20 20 18 17 17 19 19 19 21 23 19 19 20 20 29 31 37 40 32 30 27 27 28 28 26 27 27 29 29 27 25 23 23 22 21 20 19 17
22 21 21 21 20 20 19 15 15 19 19 18 18 21 21 18 18 16 16 18 33 32 38 33 31 22 24 28 25 24 25 33 38 33 29 27 26 24 22 22 22 21 20
23 24 22 22 22 21 18 15 15 18 19 17 17 19 20 17 17 14 16 22 33 37 32 38 43 26 25 25 25 26 26 33 39 40 32 28 27 25 25 25 23 23 22
26 26 24 25 23 22 19 16 15 17 18 16 19 18 15 13 15 10 17 19 26 18 36 24 15 23 18 22 24 30 20 33 37 35 32 30 28 26 24 23 25 23 23
29 29 26 26 25 23 20 18 17 17 17 18 17 17 18 15 14 14 18 23 24 21 29 28 25 18 22 21 19 22 34 36 36 37 34 30 28 27 27 26 23 23 21
32 31 27 27 27 24 23 20 19 19 17 18 17 17 17 18 16 16 15 25 27 28 25 25 24 22 19 23 26 31 31 31 35 39 33 31 28 27 26 24 25 25 23
33 30 29 29 28 26 24 23 22 20 19 18 17 17 16 16 15 21 19 25 30 30 32 22 21 18 25 25 33 32 34 34 35 36 35 32 29 26 24 23 24 25 25
31 31 30 30 30 27 26 26 23 22 20 19 17 17 14 14 17 19 8 24 34 38 22 23 25 23 25 34 38 37 38 39 34 35 33 30 28 29 29 28 26 25 24
33 32 29 30 32 29 27 27 25 24 22 21 18 18 14 16 18 17 22 21 28 23 25 26 26 22 29 39 41 42 42 41 38 33 35 34 31 30 29 30 29 28 27
34 32 31 33 33 30 29 28 26 26 23 21 20 18 14 16 18 23 21 29 29 27 29 26 26 26 28 30 40 41 40 40 38 34 34 34 32 31 32 31 29 28 29
38 35 35 35 34 31 32 32 28 28 25 24 22 18 16 15 16 22 26 36 40 36 33 31 30 30 35 36 46 42 35 35 39 38 36 34 31 32 32 32 31 30 30
43 42 39 38 37 34 34 34 31 30 28 25 25 22 18 17 16 19 26 29 34 31 37 39 35 35 36 40 45 44 38 38 41 41 37 36 35 35 35 34 33 33 32
48 47 45 43 40 38 38 37 35 34 31 28 27 26 23 20 19 18 22 27 27 29 36 33 38 35 33 37 41 42 46 45 45 45 42 40 37 36 35 35 34 35 34
53 52 50 46 44 42 42 41 39 38 35 31 29 28 26 23 22 20 21 22 27 24 32 37 36 35 35 37 34 33 44 51 50 47 45 43 42 41 40 39 38 37 36
55 55 53 50 47 45 45 44 42 41 38 35 33 31 29 27 25 24 23 22 25 29 31 35 36 36 34 36 36 33 39 48 51 49 48 47 46 45 45 43 41 40 39
60 59 55 53 51 48 46 46 43 43 42 40 37 35 33 32 30 28 26 22 24 24 31 33 36 41 37 34 35 34 37 46 51 50 49 47 48 46 46 45 44 43 41
63 61 59 57 56 53 50 49 48 47 47 46 44 40 37 35 34 32 30 29 27 27 27 31 36 39 39 38 36 36 37 40 44 48 48 48 49 47 47 46 46 44 43
67 64 61 60 59 57 54 53 51 50 50 50 47 44 40 39 38 36 34 32 33 30 31 30 29 32 37 40 40 37 39 40 43 46 49 50 50 51 52 50 48 48 46
69 66 66 62 59 58 57 56 54 54 52 51 50 49 47 44 42 41 39 37 37 34 33 32 32 32 31 31 32 33 37 40 42 43 46 49 49 51 52 50 51 50 52
69 68 64 65 61 61 60 58 58 57 57 56 56 55 53 48 45 44 43 41 39 37 36 35 35 35 35 34 31 31 31 30 32 33 36 40 42 44 43 45 49 50 49
71 68 65 65 63 61 62 62 60 59 60 59 59 58 55 53 50 48 47 45 43 42 40 40 39 38 38 37 35 35 33 32 32 30 30 30 32 35 38 42 44 46 48
Wind_Direction
266 272 279 281 285 290 288 284 277 274 271 265 265 267 270 269 264 258 252 243 233 226 223 220 219 215 217 218 215 215 216 217 216 213 209 208 204 207 207 212 211 211 211
265 271 274 282 288 289 285 283 277 275 276 267 270 272 270 268 264 256 252 246 231 222 221 217 218 216 214 215 217 217 219 218 216 213 209 207 206 206 205 204 206 208 209
265 267 271 281 284 284 286 286 280 280 280 275 271 272 269 263 260 250 247 241 225 219 218 217 216 214 214 214 217 218 219 222 218 213 207 204 207 204 207 199 202 206 211
265 269 273 276 276 280 287 289 288 285 281 278 271 270 267 262 262 247 249 228 225 216 215 215 216 214 214 214 217 220 221 220 221 214 207 203 204 203 204 192 199 206 212
260 263 273 274 273 277 282 290 289 285 288 281 271 269 266 264 257 250 243 238 244 212 211 212 215 208 213 216 219 221 222 221 221 214 208 203 201 200 200 195 198 201 199
264 266 269 268 271 277 286 293 290 290 292 274 268 268 271 262 254 254 252 244 221 208 205 208 213 214 214 217 221 223 225 223 219 212 204 202 202 203 200 198 198 202 202
264 266 269 266 268 275 285 289 290 294 288 275 270 268 272 259 262 260 247 235 196 209 208 208 213 212 201 213 216 218 225 230 225 205 203 199 202 202 198 197 199 201 202
264 264 262 264 266 272 280 281 285 294 290 279 272 270 266 258 263 252 225 213 214 221 206 196 215 194 208 212 212 223 236 237 232 203 199 198 199 200 201 196 198 199 199
262 260 259 260 263 267 271 272 278 290 292 280 271 271 270 251 274 267 231 215 201 197 193 180 194 204 210 236 211 229 235 229 210 192 196 198 202 201 203 198 201 202 203
260 256 254 256 260 264 265 262 269 278 287 280 278 273 271 257 250 258 249 230 202 171 176 197 209 200 214 215 229 228 220 193 193 194 194 198 199 203 203 204 203 205 204
253 253 251 252 254 258 260 257 262 267 277 279 278 270 272 260 256 250 254 241 232 216 198 201 204 204 219 222 221 193 180 186 195 196 193 201 201 205 205 205 208 208 209
249 249 247 250 251 255 256 256 255 261 267 275 274 267 268 260 247 246 267 220 217 186 195 188 201 201 204 186 176 175 175 181 182 187 192 197 196 195 203 204 212 211 213
250 252 249 248 250 252 252 253 253 255 260 266 271 267 260 261 233 251 187 164 206 204 205 201 195 197 198 191 183 191 194 198 196 192 191 199 204 206 208 210 211 210 210
250 249 246 245 247 248 250 252 252 253 255 258 266 269 260 252 225 227 212 183 179 206 210 206 194 208 194 191 193 201 203 205 200 202 203 205 206 210 212 216 216 216 216
245 241 239 240 243 244 247 250 252 251 250 255 257 266 261 258 234 224 232 220 182 204 214 205 211 206 202 204 203 207 209 219 200 206 206 209 208 214 218 219 220 219 222
246 241 238 239 241 241 246 247 247 249 247 249 251 251 258 256 249 233 216 213 222 231 227 215 217 208 194 201 204 213 216 221 209 207 207 210 209 216 218 220 222 223 225
240 239 237 239 240 239 242 246 244 245 244 245 247 245 245 252 248 240 230 221 228 230 215 217 221 211 205 209 209 212 222 221 218 213 210 210 214 220 222 223 225 227 230
237 239 238 239 239 239 241 243 242 242 242 241 243 246 242 240 244 236 225 223 225 224 220 221 210 210 213 214 216 220 221 224 228 218 217 219 221 223 226 227 229 230 233
234 235 237 237 238 240 241 242 241 241 242 242 240 241 243 240 241 243 234 229 223 223 219 213 213 213 219 217 223 227 224 226 222 219 218 220 221 223 227 231 232 233 235
238 236 238 239 237 237 240 243 243 243 242 243 241 239 240 239 237 240 239 235 226 222 220 216 215 216 216 222 226 226 222 222 220 218 221 221 224 227 235 234 235 236 238
239 239 237 240 241 237 240 243 244 243 245 242 241 239 235 237 236 235 238 236 236 227 225 224 223 225 225 229 228 226 224 221 223 225 227 227 231 236 238 236 239 238 241
242 240 237 236 239 240 239 241 242 241 242 242 241 238 237 235 236 234 234 234 233 233 227 228 228 226 230 233 230 233 230 226 223 225 229 234 234 238 239 238 237 241 243
243 242 240 239 237 238 238 238 240 243 243 245 245 244 240 237 237 237 237 234 233 229 232 230 229 227 228 230 234 236 232 232 230 230 229 232 236 237 240 238 238 239 240
244 243 240 237 239 238 238 237 237 240 241 241 243 242 241 240 237 238 236 235 235 232 233 232 232 231 231 232 234 234 239 240 240 239 238 240 240 237 237 237 239 241 243
243 242 241 240 236 237 237 237 238 237 240 239 239 241 240 239 241 239 238 238 236 234 235 235 235 234 235 235 232 230 232 235 239 241 244 244 246 247 248 251 249 248 250
239 240 238 237 235 235 236 235 235 237 238 240 240 241 243 242 239 239 239 239 239 239 236 236 236 236 236 236 236 238 236 235 237 243 243 242 244 244 247 250 252 254 254
Height
5801 5800 5800 5800 5800 5799 5798 5797 5796 5795 5794 5794 5794 5794 5795 5796 5796 5796 5796 5798 5800 5803 5805 5806 5808 5810 5813 5815 5817 5819 5822 5824 5826 5828 5830 5832 5833 5836 5837 5840 5842 5843 5844
5798 5797 5796 5796 5795 5794 5794 5793 5792 5791 5791 5790 5790 5790 5790 5790 5790 5789 5790 5792 5795 5797 5800 5802 5804 5806 5808 5811 5814 5816 5819 5822 5824 5826 5828 5830 5832 5834 5836 5839 5841 5842 5843
5793 5793 5793 5792 5791 5790 5790 5789 5787 5787 5786 5786 5786 5786 5785 5784 5784 5784 5784 5785 5788 5791 5795 5798 5798 5801 5804 5807 5810 5813 5816 5820 5822 5825 5826 5828 5831 5832 5834 5837 5840 5840 5841
5789 5789 5789 5789 5788 5787 5786 5785 5783 5782 5782 5782 5782 5781 5780 5779 5777 5777 5776 5779 5781 5787 5790 5791 5794 5797 5801 5803 5807 5810 5813 5817 5820 5823 5825 5827 5829 5831 5833 5836 5838 5840 5840
5785 5785 5784 5784 5784 5783 5782 5780 5778 5777 5777 5777 5778 5777 5774 5773 5772 5771 5773 5775 5776 5780 5785 5786 5789 5793 5797 5800 5803 5807 5810 5814 5817 5820 5823 5825 5827 5829 5831 5834 5836 5838 5840
5780 5781 5781 5781 5781 5779 5778 5775 5774 5773 5773 5772 5772 5772 5770 5769 5767 5767 5767 5768 5769 5773 5778 5780 5784 5788 5792 5796 5800 5804 5807 5811 5814 5817 5820 5823 5825 5828 5830 5833 5835 5837 5838
5775 5775 5776 5776 5776 5774 5773 5771 5770 5771 5770 5768 5768 5768 5766 5764 5764 5763 5763 5762 5764 5769 5772 5778 5782 5778 5789 5793 5796 5800 5803 5806 5809 5813 5817 5820 5823 5826 5828 5830 5832 5834 5836
5770 5770 5770 5771 5771 5770 5769 5768 5767 5767 5766 5764 5763 5762 5762 5760 5760 5760 5761 5759 5763 5765 5768 5776 5776 5782 5786 5787 5793 5797 5799 5800 5804 5807 5814 5817 5820 5823 5825 5827 5830 5832 5835
5763 5764 5765 5765 5766 5765 5764 5764 5764 5764 5762 5761 5758 5758 5758 5758 5758 5759 5759 5759 5760 5760 5763 5748 5769 5779 5782 5785 5790 5791 5793 5797 5801 5804 5810 5814 5817 5820 5822 5825 5828 5831 5835
5758 5758 5759 5760 5760 5760 5759 5760 5759 5760 5758 5757 5756 5756 5754 5754 5755 5756 5755 5756 5757 5739 5754 5771 5776 5777 5779 5783 5786 5785 5791 5795 5797 5802 5807 5812 5815 5818 5821 5824 5828 5830 5833
5750 5752 5753 5754 5754 5755 5754 5754 5755 5755 5755 5753 5753 5752 5751 5752 5752 5752 5753 5754 5751 5758 5765 5767 5772 5775 5777 5780 5782 5784 5787 5791 5796 5800 5805 5809 5813 5816 5819 5823 5826 5829 5831
5743 5745 5746 5748 5748 5750 5749 5749 5750 5751 5751 5750 5750 5749 5749 5749 5749 5747 5747 5746 5747 5755 5759 5764 5768 5772 5776 5780 5782 5785 5789 5792 5794 5798 5802 5806 5810 5814 5818 5821 5824 5826 5829
5737 5739 5740 5742 5742 5744 5743 5744 5745 5746 5746 5746 5746 5746 5746 5747 5747 5744 5745 5744 5737 5751 5758 5761 5764 5770 5773 5777 5781 5784 5787 5790 5792 5795 5799 5804 5808 5811 5814 5817 5820 5824 5826
5730 5731 5733 5735 5736 5737 5738 5739 5740 5742 5741 5742 5743 5742 5743 5744 5746 5744 5745 5744 5746 5750 5755 5758 5762 5768 5770 5773 5777 5780 5784 5787 5789 5793 5798 5801 5805 5807 5810 5813 5817 5820 5823
5723 5723 5725 5726 5728 5730 5731 5733 5734 5736 5736 5737 5738 5738 5738 5739 5742 5744 5743 5742 5744 5748 5753 5756 5760 5763 5767 5771 5774 5777 5781 5784 5787 5791 5794 5798 5802 5805 5807 5810 5813 5817 5819
5714 5715 5716 5718 5720 5722 5724 5726 5727 5730 5730 5732 5734 5734 5734 5734 5735 5739 5741 5741 5742 5745 5749 5754 5758 5760 5763 5768 5771 5774 5777 5780 5784 5788 5791 5795 5799 5802 5804 5806 5809 5813 5816
5702 5704 5707 5709 5711 5713 5716 5718 5720 5722 5724 5726 5728 5730 5731 5731 5732 5732 5734 5736 5739 5739 5743 5748 5753 5756 5759 5764 5767 5770 5773 5776 5780 5784 5787 5791 5794 5797 5799 5802 5804 5806 5811
5691 5696 5697 5700 5703 5704 5707 5710 5712 5714 5717 5719 5722 5724 5726 5728 5729 5730 5730 5730 5732 5735 5738 5742 5747 5751 5755 5759 5763 5766 5768 5772 5775 5778 5782 5786 5789 5792 5795 5797 5800 5802 5805
5679 5683 5687 5691 5694 5696 5698 5701 5703 5707 5709 5712 5715 5718 5720 5721 5723 5725 5727 5727 5729 5729 5732 5736 5740 5744 5749 5753 5756 5759 5761 5764 5768 5771 5776 5779 5782 5785 5789 5791 5793 5796 5797
5669 5673 5677 5681 5684 5687 5689 5694 5696 5699 5702 5704 5707 5710 5713 5715 5717 5719 5722 5723 5725 5727 5729 5732 5736 5739 5743 5747 5750 5752 5754 5757 5760 5765 5768 5772 5775 5779 5782 5785 5787 5790 5791
5655 5659 5666 5671 5675 5678 5681 5685 5688 5691 5693 5695 5698 5701 5705 5709 5711 5713 5715 5717 5721 5723 5724 5727 5730 5734 5737 5741 5744 5746 5748 5750 5754 5759 5762 5767 5771 5773 5776 5779 5782 5784 5785
5641 5647 5653 5657 5662 5667 5671 5674 5678 5681 5684 5685 5687 5692 5696 5699 5704 5706 5709 5711 5715 5717 5719 5721 5724 5727 5730 5733 5737 5740 5743 5746 5748 5752 5756 5760 5763 5767 5769 5772 5775 5778 5779
5625 5632 5638 5645 5650 5654 5659 5663 5667 5670 5674 5677 5680 5684 5688 5692 5694 5697 5700 5704 5709 5711 5713 5715 5717 5719 5723 5726 5730 5734 5735 5739 5741 5744 5747 5751 5754 5757 5760 5763 5764 5768 5771
5608 5616 5623 5629 5638 5643 5647 5652 5656 5660 5663 5668 5670 5673 5677 5680 5685 5689 5693 5698 5702 5703 5707 5709 5711 5713 5716 5719 5722 5725 5728 5731 5734 5737 5739 5742 5744 5746 5749 5752 5756 5759 5762
5592 5599 5608 5614 5621 5629 5633 5639 5644 5648 5651 5655 5659 5662 5666 5672 5675 5679 5684 5688 5692 5695 5699 5702 5705 5707 5711 5713 5716 5719 5722 5724 5727 5731 5732 5734 5737 5739 5742 5744 5747 5750 5752
5574 5581 5589 5597 5605 5612 5618 5624 5630 5636 5640 5644 5648 5652 5657 5662 5666 5669 5673 5678 5683 5686 5690 5694 5696 5700 5703 5706 5708 5712 5715 5717 5719 5722 5724 5724 5728 5731 5733 5735 5738 5740 5742